Tracking 30701 objects as of 14-Jun-2025
HD Live streaming from Space Station
objects crossing your sky now

YAOGAN-35 05C

Track YAOGAN-35 05C now!
10-day predictions


NORAD ID: 53763
Int'l Code: 2022-109D
Perigee: 519.6 km
Apogee: 526.0 km
Inclination: 35.0 °
Period: 94.9 minutes
Semi major axis: 6893 km
RCS: Unknown
Launch date: September 6, 2022
Source: People's Republic of China (PRC)
Launch site: Xichang Space Center, China (XSC)
Your satellite tracking list
Your tracking list is empty




NASA's NSSDC Master Catalog

Two Line Element Set (TLE):
1 53763U 22109D   25165.37528281  .00005874  00000-0  29398-3 0  9991
2 53763  34.9915 140.0226 0004696 207.3901 152.6565 15.16756729154378
Source of the keplerian elements: AFSPC